[[{"header":{"parameterUnit":"m.s-1","parameterCategory":1,"la1":30.2991,"la2":30.254,"lo1":-89.0895,"lo2":-89.0444,"dy":0.0017,"dx":0.0017,"nx":28,"ny":28,"refTime":"2025-04-14T09:00:00:Z","depth":0,"parameterNumber":2,"parameterNumberName":"U-component_of_WINDS"},"data":[0,0,0,0,0,0,0,0,0,0,0,0,0,0,0,0,0,0,0,0,0,0,0,0,0,0,0,0,0,0,0,0,0,0,0,0,0,0,0,0,0,0,0,0,0,0,0,0,0,0,0,0,0,0,0,0,0,0,2.3521,2.3522,0,2.3609,2.361,2.3611,2.3579,2.3577,2.3575,2.3573,2.3667,2.3671,2.3675,0,0,0,0,0,0,0,0,0,0,0,0,0,2.3324,2.3328,2.3521,2.3522,2.3523,2.3609,2.3611,2.3612,2.358,2.3577,2.3575,2.3573,2.3665,2.367,2.3675,0,0,0,0,0,0,0,0,0,0,0,0,0,2.3411,2.3329,2.3521,2.3517,2.3518,2.3609,2.3611,2.3612,2.358,2.3577,2.3574,2.3571,2.3663,2.367,2.3676,2.3776,0,0,2.3696,2.3699,0,0,0,0,0,0,0,0,2.3406,2.3418,2.3517,2.3518,2.3519,2.358,2.3575,2.3667,2.3581,2.3557,2.3573,2.357,2.364,2.3649,2.3672,2.3781,2.3785,2.3697,2.3701,2.3703,2.3705,0,0,0,0,0,0,0,2.34,2.3414,2.3556,2.3518,2.3519,2.3512,2.3521,2.3592,2.3614,2.3559,2.3556,2.3567,2.364,2.3666,2.3674,2.3786,2.3696,2.3702,2.3706,2.3709,2.3977,2.398,0,0,0,0,0,0,2.3393,2.3409,2.3553,2.3559,2.3454,2.3518,2.3528,2.3564,2.3613,2.3618,2.357,2.3565,2.3656,2.3666,2.3677,2.3794,2.3703,2.3709,2.3713,2.3974,2.3978,2.3981,0,0,0,0,0,0,2.3389,2.3407,2.355,2.3483,2.3501,2.3524,2.3565,2.3567,2.3592,2.3622,2.3626,2.3591,2.3654,2.3668,2.3751,2.3797,2.3712,2.3718,2.397,2.3975,2.398,2.4031,0,0,0,0,0,0,2.3384,2.3405,2.3444,2.3485,2.3505,2.3622,2.3568,2.3571,2.3603,2.3598,2.3643,2.3648,2.3653,2.3741,2.3757,2.3804,2.3723,2.3966,2.3972,2.3978,2.4025,2.4037,2.4047,0,0,0,0,0,2.3377,2.3456,2.3446,2.3463,2.3553,2.3625,2.3636,2.3639,2.3607,2.3645,2.3664,2.3646,2.379,2.375,2.3768,2.3817,2.3963,2.3971,2.3978,2.402,2.4035,2.4047,0,0,0,0,0,0,2.3422,2.3462,2.3451,2.3545,2.3582,2.3619,2.3668,2.3655,2.3702,2.3696,2.3699,2.3709,2.3794,2.3815,2.3769,2.3915,2.3871,2.3883,2.3898,2.3912,2.3922,2.3914,2.3729,0,0,0,0,0,2.3443,2.3497,2.3529,2.361,2.3628,2.3645,2.3676,2.3675,2.3713,2.3729,2.3754,2.3792,2.3845,2.388,2.3931,2.4029,2.4036,2.4072,2.4082,2.4091,2.41,2.4149,2.4164,2.4005,2.4005,2.4005,0,0,2.3486,2.3515,2.3549,2.3619,2.3647,2.3702,2.3658,2.372,2.3761,2.3739,2.3817,2.3837,2.3879,2.3969,2.401,2.3989,2.4146,2.4101,2.4107,2.4111,2.4158,2.4173,2.4187,2.401,2.4009,2.4008,0,0,2.3593,2.3622,2.369,2.3718,2.376,2.377,2.3787,2.3826,2.3837,2.3916,2.3899,2.3948,2.4041,2.407,2.4098,2.4213,2.4198,2.423,2.4286,2.4334,2.4347,2.4358,2.4395,2.4409,2.4239,2.424,2.424,0,2.3642,2.3725,2.3727,2.3788,2.3818,2.38,2.3867,2.3895,2.3953,2.3974,2.3949,2.4062,2.409,2.4184,2.4212,2.4236,2.4253,2.4224,2.4345,2.4356,2.4366,2.4402,2.4417,2.4243,2.4243,2.4242,2.4242,0,2.3781,2.3839,2.3889,2.3941,2.3978,2.4043,2.4053,2.409,2.4086,2.4098,2.4177,2.4209,2.4264,2.4287,2.4285,2.438,2.4365,2.4344,2.4299,2.4385,2.4418,2.4432,2.4248,2.4247,2.4246,2.4245,0,0,2.3919,2.397,2.3988,2.401,2.4054,2.4099,2.4162,2.4215,2.4244,2.4284,2.4336,2.4413,2.4392,2.4423,2.4423,2.4466,2.4551,2.4438,2.4439,2.4455,2.4654,2.4668,2.4684,2.4542,2.4544,2.4547,2.4649,0,2.4026,2.4135,2.4137,2.4238,2.4289,2.4271,2.4326,2.4358,2.4372,2.4417,2.4432,2.4485,2.4455,2.4473,2.4514,2.4532,2.459,2.4525,2.4588,2.459,2.4574,2.4702,2.4718,2.4813,2.4662,2.4665,2.4666,0,2.4166,2.4207,2.4312,2.4345,2.4367,2.4416,2.4462,2.4507,2.4543,2.4549,2.4583,2.4576,2.4639,2.4595,2.4681,2.4636,2.4662,2.4675,2.4678,2.4682,2.4631,2.4706,2.4844,2.4856,2.4688,2.4686,2.4685,0,2.4251,2.4334,2.4405,2.4426,2.4468,2.4502,2.4521,2.4554,2.4585,2.4626,2.4645,2.4694,2.472,2.4758,2.4764,2.4732,2.4849,2.4806,2.4854,2.4854,2.4878,2.4876,2.5018,2.4901,2.49,2.49,2.49,0,2.4368,2.4432,2.4443,2.4487,2.4558,2.456,2.4629,2.4646,2.4675,2.4721,2.4711,2.4754,2.4762,2.4807,2.4813,2.4881,2.4894,2.49,2.49,2.4899,2.4898,2.4914,2.4906,2.4904,2.4903,2.4902,2.4902,0,2.4474,2.4485,2.4561,2.4594,2.4603,2.4653,2.4681,2.4723,2.4734,2.4793,2.4807,2.4825,2.4877,2.4888,2.4951,2.4955,2.5034,2.503,2.5021,2.502,2.5066,2.506,2.5221,2.5241,2.5114,2.5115,2.5116,0,2.4547,2.4595,2.4632,2.4661,2.4681,2.473,2.4759,2.4763,2.4795,2.4838,2.4874,2.4925,2.4966,2.505,2.5069,2.5116,2.5111,2.5164,2.5118,2.5114,2.5107,2.5102,2.5106,2.5172,2.5173,2.5174,2.5175,0,2.4673,2.4675,2.4719,2.4763,2.4799,2.4834,2.4868,2.4893,2.4901,2.4938,2.499,2.5021,2.5084,2.5134,2.518,2.52,2.5188,2.519,2.5203,2.52,2.5192,2.5193,2.5042,2.5186,2.5185,2.5184,2.5183,2.5183,2.4762,2.4802,2.4833,2.4881,2.4907,2.4938,2.4977,2.4993,2.5036,2.5086,2.5086,2.5143,2.5175,2.5237,2.5259,2.5303,2.5286,2.5306,2.531,2.5314,2.5316,2.5187,2.5312,2.5312,2.5312,2.5311,2.5311,0,2.4885,2.4903,2.4947,2.4993,2.503,2.5016,2.5052,2.5084,2.5133,2.5164,2.5203,2.5262,2.531,2.5332,2.5379,2.5409,2.5405,2.5421,2.5417,2.5421,2.5331,2.5313,2.5424,2.5424,2.5424,2.5424,2.5424,2.5424,2.4952,2.5018,2.5024,2.5102,2.512,2.5174,2.5196,2.5224,2.5248,2.5313,2.5352,2.5366,2.5393,2.5441,2.5483,2.5489,2.5505,2.5523,2.5525,2.544,2.5428,2.5417,2.54,2.5527,2.5528,2.5612,2.5612,2.5613]},{"header":{"parameterUnit":"m.s-1","parameterCategory":1,"la1":30.2991,"la2":30.254,"lo1":-89.0895,"lo2":-89.0444,"dy":0.0017,"dx":0.0017,"nx":28,"ny":28,"refTime":"2025-04-14T09:00:00:Z","depth":0,"parameterNumber":3,"parameterNumberName":"V-component_of_WINDS"},"data":[0,0,0,0,0,0,0,0,0,0,0,0,0,0,0,0,0,0,0,0,0,0,0,0,0,0,0,0,0,0,0,0,0,0,0,0,0,0,0,0,0,0,0,0,0,0,0,0,0,0,0,0,0,0,0,0,0,0,3.65,3.6501,0,3.6563,3.6564,3.6565,3.6511,3.6509,3.6507,3.6504,3.6566,3.6569,3.6573,0,0,0,0,0,0,0,0,0,0,0,0,0,3.6329,3.6332,3.65,3.6501,3.6502,3.6563,3.6564,3.6565,3.6511,3.6509,3.6506,3.6503,3.6564,3.6569,3.6573,0,0,0,0,0,0,0,0,0,0,0,0,0,3.6398,3.6333,3.65,3.6483,3.6482,3.6563,3.6564,3.6565,3.6512,3.6509,3.6505,3.6502,3.6563,3.6568,3.6574,3.6675,0,0,3.6591,3.6593,0,0,0,0,0,0,0,0,3.6395,3.6405,3.6484,3.6484,3.6483,3.6526,3.6526,3.6602,3.6513,3.65,3.6504,3.65,3.6555,3.6561,3.658,3.6678,3.668,3.6591,3.6595,3.6597,3.6599,0,0,0,0,0,0,0,3.639,3.6402,3.6525,3.6486,3.6485,3.647,3.6476,3.654,3.6545,3.6501,3.6497,3.6506,3.6554,3.6575,3.6581,3.6681,3.6591,3.6596,3.6599,3.6602,3.6861,3.6865,0,0,0,0,0,0,3.6387,3.6398,3.6523,3.6527,3.643,3.6476,3.6483,3.6516,3.6545,3.6546,3.6509,3.6503,3.6567,3.6575,3.6583,3.6701,3.6597,3.6602,3.6605,3.6858,3.6862,3.6866,0,0,0,0,0,0,3.6384,3.6399,3.6521,3.6462,3.6476,3.6482,3.6519,3.6519,3.6539,3.655,3.655,3.6529,3.6565,3.6575,3.6652,3.6702,3.6605,3.661,3.6854,3.6859,3.6864,3.6939,0,0,0,0,0,0,3.6379,3.6398,3.6438,3.6463,3.6479,3.659,3.6523,3.6522,3.6549,3.6543,3.657,3.6571,3.6563,3.6644,3.6657,3.6708,3.6614,3.6849,3.6856,3.6862,3.6932,3.6946,3.6959,0,0,0,0,0,3.6373,3.6457,3.644,3.6456,3.653,3.6593,3.6603,3.6592,3.6554,3.6593,3.6599,3.657,3.6695,3.6652,3.6667,3.672,3.6846,3.6854,3.6862,3.6926,3.6944,3.6958,0,0,0,0,0,0,3.6437,3.646,3.6442,3.6536,3.6563,3.6584,3.6633,3.6612,3.665,3.6642,3.6626,3.6633,3.6713,3.6724,3.6677,3.6818,3.6764,3.6775,3.6808,3.6824,3.6837,3.6832,3.6619,0,0,0,0,0,3.6462,3.6514,3.653,3.6611,3.6626,3.6628,3.6655,3.6645,3.6672,3.6683,3.6695,3.6721,3.6766,3.6796,3.6838,3.6934,3.6937,3.6977,3.699,3.7001,3.7011,3.706,3.7077,3.6892,3.6892,3.6892,0,0,3.6514,3.6533,3.6566,3.6625,3.6644,3.6696,3.6638,3.6695,3.6733,3.6691,3.6764,3.6774,3.6802,3.6888,3.6926,3.69,3.7063,3.7011,3.702,3.7024,3.707,3.7087,3.7103,3.6898,3.6897,3.6896,0,0,3.6635,3.6656,3.6725,3.6746,3.6776,3.6776,3.6793,3.6817,3.6822,3.6895,3.6864,3.6908,3.6986,3.7006,3.7027,3.7154,3.7127,3.7168,3.7236,3.7284,3.7298,3.7311,3.7354,3.737,3.7177,3.7178,3.7178,0,3.6696,3.6774,3.6763,3.6822,3.6847,3.6812,3.6881,3.6901,3.6944,3.6961,3.6931,3.7026,3.7043,3.7132,3.7163,3.7182,3.7198,3.7164,3.7298,3.731,3.7322,3.7363,3.7379,3.7182,3.7182,3.7181,3.7181,0,3.6846,3.69,3.6952,3.6994,3.7025,3.7089,3.7085,3.7118,3.7104,3.7107,3.718,3.7199,3.7243,3.7263,3.7251,3.735,3.7332,3.73,3.7245,3.7344,3.7382,3.7398,3.7189,3.7187,3.7186,3.7185,0,0,3.701,3.7044,3.7063,3.708,3.7111,3.7152,3.7212,3.7256,3.7283,3.7313,3.7362,3.7428,3.7398,3.7422,3.7411,3.7453,3.7549,3.7415,3.7416,3.7438,3.7657,3.768,3.7698,3.7532,3.7535,3.7537,3.7654,0,3.7131,3.7238,3.7228,3.7329,3.7377,3.7344,3.7396,3.7419,3.7423,3.7463,3.7466,3.7512,3.7471,3.7484,3.7524,3.7529,3.7592,3.7521,3.7575,3.7578,3.7568,3.7718,3.7743,3.7852,3.7669,3.7671,3.7673,0,3.7287,3.7322,3.7428,3.7449,3.7469,3.7516,3.7554,3.7594,3.7618,3.7617,3.7643,3.7624,3.7683,3.7627,3.7707,3.7658,3.7679,3.7685,3.7689,3.7693,3.7631,3.7725,3.7887,3.7903,3.7697,3.7695,3.7693,0,3.7393,3.7467,3.754,3.7556,3.7583,3.7616,3.7629,3.765,3.7676,3.7709,3.7725,3.7764,3.7785,3.7814,3.7805,3.7766,3.7886,3.783,3.7885,3.7885,3.7911,3.791,3.8078,3.7928,3.7927,3.7927,3.7927,0,3.7529,3.7594,3.7587,3.7632,3.7703,3.769,3.7761,3.7768,3.7787,3.7831,3.7804,3.7845,3.7832,3.7872,3.7865,3.793,3.794,3.794,3.7937,3.7942,3.7942,3.7955,3.7947,3.7931,3.7931,3.793,3.7929,0,3.766,3.7658,3.7734,3.7753,3.7759,3.781,3.7825,3.7866,3.7866,3.7922,3.7934,3.7935,3.798,3.7975,3.8025,3.802,3.8101,3.809,3.8093,3.809,3.8145,3.8139,3.8327,3.835,3.8186,3.8188,3.8189,0,3.7746,3.7795,3.7819,3.7846,3.7861,3.7906,3.7932,3.792,3.7948,3.7979,3.8015,3.8058,3.8092,3.8165,3.817,3.8207,3.8196,3.8259,3.8201,3.8204,3.8195,3.8191,3.8195,3.827,3.8272,3.8273,3.8275,0,3.7898,3.7894,3.7933,3.7972,3.8004,3.8034,3.8061,3.8084,3.8075,3.8107,3.8154,3.818,3.8231,3.8273,3.8308,3.8319,3.8295,3.8293,3.8307,3.8312,3.8311,3.831,3.8123,3.8288,3.8287,3.8286,3.8285,3.8285,3.8008,3.8049,3.8071,3.8115,3.8134,3.8159,3.8198,3.8203,3.8242,3.8283,3.8273,3.8325,3.8345,3.839,3.8405,3.8443,3.842,3.8442,3.8447,3.8452,3.8457,3.8306,3.845,3.845,3.8449,3.8449,3.8449,0,3.8156,3.8169,3.821,3.8248,3.8282,3.8257,3.8284,3.8314,3.836,3.8382,3.8415,3.8467,3.8507,3.8514,3.8552,3.8582,3.8571,3.8592,3.8589,3.8591,3.8477,3.846,3.8599,3.8599,3.8599,3.8599,3.8599,3.8599,3.8238,3.8306,3.8305,3.8381,3.8392,3.8443,3.8461,3.8483,3.85,3.8559,3.8593,3.8597,3.8612,3.865,3.8685,3.8686,3.87,3.8725,3.8721,3.8614,3.8599,3.8585,3.8569,3.8729,3.8729,3.8832,3.8833,3.8833]}]]